Location: Ast�
(43.0409°N, 0.1694°E)
Time: 16:51:55
(UTC+00:00)

Daily predictions for brighter satellites

Satellite Brightness Start Highest point End
(mag) Time Altitude Azimuth Time Altitude Azimuth Time Altitude Azimuth
Helios 1A Rocket 4.4 20:11:07 10° SSW 20:14:52 36° W 20:18:38 10° NNW
IGS 5A 3.9 20:10:57 10° SE 20:14:56 47° ENE 20:18:56 10° N
ATLAS CENTAUR R/B 2.9 20:11:53 10° NNW 20:15:40 28° NE 20:19:38 10° ESE
Cosmos 1461 3.0 20:12:11 10° NNW 20:16:22 62° NE 20:20:20 10° SE
Cosmos 1844 4.4 20:11:32 10° NNW 20:16:48 42° ENE 20:22:06 10° SE
Landsat 7 4.3 20:12:45 10° SE 20:17:17 47° ENE 20:21:51 10° N
Cosmos 1455 Rocket 3.8 20:15:28 10° N 20:19:40 38° ENE 20:23:50 10° SE
Cosmos 1726 2.7 20:16:19 10° NNW 20:19:54 57° W 20:23:27 10° S
Okean 1 Rocket 3.6 20:17:19 10° NNW 20:21:39 62° W 20:26:00 10° S
Lacrosse 5 rocket 1.1 20:18:01 10° SW 20:21:46 83° NW 20:25:24 10° NE
Meteor 2-20 Rocket 4.5 20:16:14 10° S 20:22:16 67° E 20:28:19 10° NNE
Cosmos 1758 3.3 20:20:04 10° N 20:24:04 86° WSW 20:28:00 10° S
Cosmos 1741 Rocket 4.1 20:21:36 10° NNW 20:26:54 78° ENE 20:32:11 10° SSE
Cosmos 1674 2.9 20:24:04 10° S 20:27:39 49° E 20:31:15 10° NNE
KORONAS-FOTON 4.0 20:24:05 10° S 20:27:45 50° E 20:31:25 10° NNE
ARIANE 5 R/B 4.1 20:24:37 10° ESE 20:28:06 23° ENE 20:31:38 10° NNE
Cosmos 2360 Rocket 2.2 20:24:00 10° SSW 20:29:38 79° ESE 20:35:18 10° NNE
Cosmos 2100 Rocket 4.3 20:24:29 10° N 20:30:42 53° ENE 20:36:49 10° SSE
Ariane Rocket 3.4 20:26:19 10° S 20:31:23 66° WSW 20:36:29 10° NNW
Cosmos 2322 Rocket 3.0 20:28:54 10° SW 20:34:30 58° WNW 20:40:09 10° NNE
SL-16 R/B 3.5 20:29:57 10° SW 20:35:21 45° WNW 20:40:48 10° NNE
Resurs 1-3 4.5 20:35:03 10° S 20:39:17 49° W 20:43:34 10° NNW
Cosmos 1025 Rocket 3.5 20:36:58 10° SSE 20:41:05 43° E 20:45:13 10° NNE
Cosmos 2173 Rocket 4.2 20:35:42 10° N 20:42:02 60° E 20:48:16 10° SSE
SPOT 3 Rocket 3.6 20:38:52 10° SSE 20:44:02 85° ENE 20:49:15 10° NNW
SL-8 R/B 3.7 20:42:37 10° WNW 20:47:25 76° SSW 20:51:33 14° SE
Cosmos 1953 2.3 20:43:21 10° N 20:47:25 74° E 20:51:19 11° SSE
Cosmos 1300 4.3 20:45:07 10° NNE 20:48:03 21° ENE 20:50:18 13° ESE
Cosmos 1340 3.4 20:47:32 12° SSE 20:50:33 34° E 20:54:00 10° NNE
Meteor 1-16 Rocket 4.1 20:49:39 10° N 20:55:06 90° WNW 21:00:25 10° S
Cosmos 1110 Rocket 4.1 20:50:23 10° SSW 20:55:33 79° WNW 21:00:48 10° NNE
FALCON 9 DEB 3.3 20:55:01 10° WSW 20:58:07 66° NW 21:01:14 10° NE
Cosmos 2322 3.7 20:54:14 10° S 20:59:47 64° ESE 21:05:23 10° NNE
CARTOSAT-1 4.0 20:56:53 16° SE 21:00:08 48° ENE 21:04:18 10° N
DNEPR-1 R/B 3.9 20:56:41 10° NNW 21:00:50 53° NE 21:04:06 17° SE
Cosmos 1844 Rocket 2.8 20:55:13 10° NNW 21:00:54 75° WSW 21:05:55 13° SSE
Cosmos 1725 Rocket 4.4 20:55:25 10° N 21:01:23 48° ENE 21:06:08 16° SE
Cosmos 2278 Rocket 3.8 20:57:40 10° N 21:02:06 23° NE 21:06:31 10° ESE
COSMOS 2428 3.0 20:57:17 10° S 21:02:43 46° ESE 21:08:10 10° NE
ATLAS 3B R/B 2.6 21:01:24 10° SSW 21:07:54 82° SE 21:14:40 10° NE
Cosmos 1626 2.1 21:06:31 10° S 21:10:12 85° W 21:13:55 10° N
Meteor 2-11 Rocket 4.4 21:04:21 10° N 21:10:30 86° E 21:15:55 13° S
Cosmos 1975 Rocket 4.1 21:06:21 10° SSW 21:10:33 46° WNW 21:14:49 10° N
USA 245 4.2 21:06:47 14° SSE 21:11:11 90° SW 21:17:12 10° NNW
Aureole 1 Rocket 4.5 21:04:52 10° NNW 21:11:13 73° WSW 21:18:27 13° S
MetOp-B 4.4 21:06:20 10° S 21:11:34 68° WSW 21:16:55 10° NNW
ATLAS CENTAUR R/B 4.4 21:13:48 13° ESE 21:14:41 13° E 21:17:51 10° ENE
Cosmos 405 3.0 21:14:29 10° N 21:17:54 58° ENE 21:19:36 26° SSE
Cosmos 1908 4.0 21:15:26 10° NNW 21:19:10 49° W 21:22:27 13° SSW
Cosmos 1459 Rocket 4.1 21:15:14 10° NNW 21:21:16 71° W 21:26:57 12° S
FALCON 9 DEB 4.4 21:18:34 10° W 21:21:31 39° NNW 21:24:29 10° NE
CZ-2C R/B 4.4 21:18:07 10° N 21:22:50 61° WNW 21:27:30 10° SSW
Cosmos 1802 Rocket 4.1 21:17:56 10° N 21:24:15 84° W 21:29:41 15° S
Terra 2.3 21:24:33 22° SE 21:27:17 47° ENE 21:31:51 10° N
ERS-1 Rocket 3.0 21:24:00 21° SSE 21:27:18 68° ENE 21:32:20 10° N
Resurs 01 Rocket 3.4 21:24:17 10° SSW 21:28:01 27° W 21:31:45 10° NW
Geosat 4.2 21:27:07 22° SE 21:30:17 61° ENE 21:35:15 10° NNW
Spot 2 Rocket 3.7 21:31:19 19° S 21:35:01 70° WSW 21:40:06 10° NNW
NOSS 0 Rocket 4.3 21:32:45 18° S 21:36:58 45° ESE 21:42:51 10° NE
Cosmos 1980 4.4 21:36:06 24° SSE 21:38:36 35° ESE 21:43:42 10° NE
USA 215 4.2 21:33:26 10° ENE 21:38:36 25° SE 21:39:58 23° SE
SPOT 5 2.9 21:36:39 24° SSE 21:39:49 88° ENE 21:44:41 10° NNW
Cosmos 1346 Rocket 3.4 21:38:56 31° SE 21:40:10 40° E 21:43:57 10° NNE
Cosmos 2219 Rocket 2.6 21:42:51 10° SW 21:48:29 64° WNW 21:54:08 10° NNE
SL-4 R/B 1.8 21:46:32 10° SW 21:50:47 83° SE 21:54:42 10° ENE
Cosmos 2333 Rocket 3.1 21:48:46 10° SW 21:54:20 50° WNW 21:59:55 10° NNE
ATLAS CENTAUR R/B 2.5 21:50:31 10° NW 21:54:37 38° WSW 21:56:38 25° SSW
Cosmos 1606 Rocket 4.0 21:53:36 10° N 21:57:56 48° ENE 21:59:21 34° SE
Cosmos 967 Rocket 4.5 21:52:29 10° NNW 21:58:53 86° WSW 22:02:21 29° SSE
Meteor 2-5 Rocket 3.9 21:55:10 14° SSW 21:59:53 69° WNW 22:05:30 10° N
Lacrosse 5 rocket 4.3 21:58:56 10° WNW 22:01:19 16° NNW 22:03:42 10° NNE
Cosmos 1892 Rocket 4.3 22:01:08 32° ESE 22:02:02 35° E 22:06:06 10° NNE
ARIANE 5 R/B 3.8 22:01:41 19° SSW 22:04:20 37° W 22:08:30 10° NNW
Cosmos 2233 Rocket 4.0 22:00:14 10° N 22:06:25 84° W 22:09:55 28° S
SL-16 R/B 3.6 22:09:42 20° ESE 22:10:07 20° E 22:14:09 10° NE
Cosmos 2237 Rocket 2.2 22:08:26 30° S 22:11:07 61° ESE 22:16:40 10° NNE
Cosmos 1455 2.9 22:09:04 10° N 22:12:39 38° ENE 22:13:08 36° E
Cosmos 1447 Rocket 4.4 22:09:37 26° S 22:13:22 87° E 22:19:35 10° N
BREEZE-M DEB (TANK) 3.3 22:15:03 10° W 22:17:42 43° N 22:23:32 10° ENE
Cosmos 1300 4.4 22:20:27 10° NNW 22:23:38 26° W 22:25:14 19° SW
Cosmos 389 Rocket 2.5 22:21:08 10° NNW 22:24:32 66° W 22:24:51 61° SW
Cosmos 2228 3.2 22:20:49 10° NNW 22:25:12 69° W 22:26:31 43° SSW
Cosmos 1607 4.0 22:20:56 10° NNW 22:27:22 77° NE 22:30:17 34° SE
Meteor 1-24 Rocket 4.4 22:23:34 16° SW 22:27:38 48° WNW 22:32:59 10° N
Cosmos 968 Rocket 4.3 22:26:48 10° NW 22:31:33 40° WSW 22:33:33 28° SSW
Cosmos 1867 4.1 22:31:44 10° NW 22:37:00 49° WSW 22:38:40 37° SSW
Cosmos 2278 Rocket 2.4 22:41:02 10° NNW 22:46:38 62° WSW 22:48:27 41° S
BREEZE-M DEB (TANK) 3.1 22:44:31 10° WSW 22:55:10 84° NNW 22:58:24 10° ENE
USA 229 DEB 4.4 22:54:53 30° ESE 22:55:22 30° ESE 23:01:00 10° NE
USA 229 4.4 22:55:01 29° ESE 22:55:29 30° ESE 23:01:06 10° NE
Cosmos 1464 Rocket 4.0 22:51:22 10° N 22:57:47 89° E 23:00:09 42° S
Meteor 1-4 Rocket 3.5 22:55:40 10° N 22:58:33 36° ENE 22:58:33 36° ENE
Cosmos 1354 Rocket 4.2 22:53:58 10° NNW 22:59:15 65° WSW 23:00:36 47° SSW
NOSS 3-1 (C) 3.3 23:02:13 47° SE 23:02:50 49° ESE 23:08:36 10° NE
Terra 3.8 23:03:26 16° WSW 23:05:15 19° W 23:08:40 10° NW
Cosmos 1943 Rocket 3.1 23:02:16 10° NNW 23:07:27 40° ENE 23:09:46 27° ESE
Meteor 1-21 Rocket 4.3 23:08:10 42° SSW 23:10:08 76° W 23:15:55 10° N
NOSS 2-3 (E) 4.2 23:14:30 39° E 23:14:30 39° E 23:18:04 10° NE
Cosmos 1184 Rocket 4.2 23:13:57 31° WNW 23:13:57 31° WNW 23:16:49 10° N
Cosmos 1816 Rocket 4.4 23:12:53 47° SSE 23:14:46 75° E 23:20:53 10° N
NOSS 3-1 (A) 3.9 23:15:08 34° ESE 23:15:08 34° ESE 23:20:23 10° NE
Cosmos 1441 Rocket 3.5 23:15:09 56° W 23:15:17 57° WNW 23:19:04 10° N
COBE Rocket 3.8 23:14:22 59° SSE 23:15:21 86° ENE 23:20:18 10° N
Cosmos 1812 Rocket 4.2 23:11:53 10° N 23:16:04 43° ENE 23:16:27 41° E
Okean 1-7 Rocket 3.8 23:15:34 54° SW 23:16:18 64° W 23:20:42 10° N
USA 215 3.2 23:15:34 10° NE 23:22:09 89° SSE 23:27:14 18° SW
Cosmos 2058 Rocket 3.7 23:18:46 10° NNW 23:22:57 42° W 23:23:27 41° WSW
SL-4 R/B 3.9 23:27:08 10° WNW 23:30:40 29° NNW 23:33:59 10° NE
SJ 16-02 1.5 23:27:11 10° NNW 23:31:31 62° ENE 23:31:53 59° E
Cosmos 1703 4.3 23:33:41 35° W 23:34:05 36° WNW 23:37:45 10° N
Cosmos 2034 Rocket 4.0 23:28:25 10° NNW 23:34:33 68° W 23:36:23 46° SSW
Cosmos 1825 Rocket 4.3 23:41:53 41° E 23:41:57 41° E 23:46:08 10° NNE
Nimbus 7 Rocket 4.4 23:37:37 10° NNE 23:43:43 79° ESE 23:45:25 50° S
GP-B 3.0 23:42:59 10° N 23:47:26 70° E 23:47:38 69° ESE
SL-16 R/B 2.6 23:51:33 36° SW 23:53:43 60° WNW 23:59:20 10° NNE
NOSS 2-3 (D) 3.4 23:54:33 80° W 23:54:42 83° NW 23:59:23 10° NE
Cosmos 405 Rocket 4.3 23:56:54 25° ENE 23:56:54 25° ENE 23:59:25 10° NE
